[[{"header":{"parameterUnit":"m.s-1","parameterCategory":1,"la1":30.2991,"la2":30.254,"lo1":-89.0895,"lo2":-89.0444,"dy":0.0017,"dx":0.0017,"nx":28,"ny":28,"refTime":"2023-11-13T09:00:00:Z","depth":0,"parameterNumber":2,"parameterNumberName":"U-component_of_WINDS"},"data":[0,0,0,0,0,0,0,0,0,0,0,0,0,0,0,0,0,0,0,0,0,0,0,0,0,0,0,0,0,0,0,0,0,0,0,0,0,0,0,0,0,0,0,0,0,0,0,0,0,0,0,0,0,0,0,0,0,0,-3.5487,-3.5488,0,-3.5544,-3.5545,-3.5546,-3.546,-3.5457,-3.5454,-3.5451,-3.5511,-3.5515,-3.5519,0,0,0,0,0,0,0,0,0,0,0,0,0,-3.5304,-3.5308,-3.5487,-3.5488,-3.5489,-3.5544,-3.5545,-3.5546,-3.5461,-3.5457,-3.5453,-3.545,-3.5509,-3.5515,-3.552,0,0,0,0,0,0,0,0,0,0,0,0,0,-3.5375,-3.5309,-3.5487,-3.5453,-3.545,-3.5544,-3.5545,-3.5546,-3.5461,-3.5457,-3.5452,-3.5448,-3.5508,-3.5514,-3.552,-3.5651,0,0,-3.5541,-3.5543,0,0,0,0,0,0,0,0,-3.5371,-3.5381,-3.5457,-3.5455,-3.5453,-3.549,-3.5502,-3.5581,-3.5463,-3.5457,-3.5451,-3.5446,-3.5508,-3.5514,-3.5535,-3.5654,-3.5656,-3.5541,-3.5545,-3.5548,-3.555,0,0,0,0,0,0,0,-3.5366,-3.5379,-3.551,-3.5458,-3.5456,-3.5434,-3.544,-3.5517,-3.5507,-3.5457,-3.5451,-3.5459,-3.5506,-3.5529,-3.5535,-3.5657,-3.5541,-3.5547,-3.5551,-3.5553,-3.5886,-3.5891,0,0,0,0,0,0,-3.5365,-3.5375,-3.5508,-3.5511,-3.54,-3.5441,-3.5447,-3.5483,-3.5506,-3.5505,-3.5463,-3.5455,-3.552,-3.5528,-3.5537,-3.5692,-3.5548,-3.5554,-3.5558,-3.5882,-3.5887,-3.5893,0,0,0,0,0,0,-3.5362,-3.5378,-3.5506,-3.5442,-3.5456,-3.5449,-3.549,-3.5486,-3.5509,-3.551,-3.5508,-3.5488,-3.5516,-3.5528,-3.5623,-3.5693,-3.5557,-3.5563,-3.5876,-3.5883,-3.589,-3.6003,0,0,0,0,0,0,-3.5357,-3.5377,-3.5427,-3.5443,-3.546,-3.5591,-3.5494,-3.5491,-3.5521,-3.5511,-3.5533,-3.5533,-3.5514,-3.5614,-3.563,-3.57,-3.5568,-3.5869,-3.5879,-3.5888,-3.5993,-3.6013,-3.6031,0,0,0,0,0,-3.535,-3.5456,-3.543,-3.5446,-3.5522,-3.5595,-3.5605,-3.5581,-3.5527,-3.5576,-3.5577,-3.5532,-3.5682,-3.5624,-3.5642,-3.5714,-3.5865,-3.5876,-3.5887,-3.5985,-3.6009,-3.603,0,0,0,0,0,0,-3.5448,-3.5458,-3.5428,-3.5543,-3.5569,-3.5581,-3.5643,-3.5608,-3.565,-3.5639,-3.5607,-3.5613,-3.5715,-3.5724,-3.5659,-3.5842,-3.5765,-3.578,-3.5833,-3.5856,-3.5875,-3.5871,-3.5573,0,0,0,0,0,-3.5483,-3.5542,-3.5547,-3.5647,-3.5662,-3.565,-3.5681,-3.566,-3.5686,-3.5697,-3.5704,-3.5732,-3.5785,-3.5821,-3.587,-3.5993,-3.5997,-3.6051,-3.607,-3.6086,-3.61,-3.6166,-3.6191,-3.5929,-3.5929,-3.5929,0,0,-3.5555,-3.5568,-3.5607,-3.5667,-3.5685,-3.5747,-3.566,-3.5729,-3.5775,-3.5707,-3.5798,-3.5805,-3.5833,-3.5943,-3.5992,-3.5953,-3.6173,-3.61,-3.6112,-3.6118,-3.618,-3.6205,-3.6227,-3.5937,-3.5935,-3.5934,0,0,-3.5719,-3.5734,-3.582,-3.584,-3.5868,-3.5859,-3.588,-3.5897,-3.5899,-3.5989,-3.594,-3.5994,-3.6086,-3.6108,-3.6132,-3.6304,-3.6265,-3.6321,-3.642,-3.6485,-3.6506,-3.6524,-3.6587,-3.6609,-3.6334,-3.6335,-3.6335,0,-3.5806,-3.5898,-3.5869,-3.5942,-3.597,-3.5911,-3.5997,-3.6018,-3.6061,-3.6081,-3.6037,-3.6152,-3.6167,-3.6282,-3.6324,-3.6344,-3.6367,-3.6319,-3.6505,-3.6523,-3.6539,-3.6599,-3.6622,-3.6341,-3.634,-3.634,-3.6339,0,-3.6004,-3.6068,-3.6133,-3.6176,-3.6211,-3.6291,-3.6274,-3.6313,-3.6289,-3.6285,-3.6378,-3.6394,-3.6445,-3.647,-3.6447,-3.6582,-3.6558,-3.651,-3.6432,-3.6572,-3.6627,-3.6649,-3.6351,-3.6349,-3.6347,-3.6345,0,0,-3.6233,-3.6258,-3.6283,-3.6302,-3.6328,-3.6377,-3.6453,-3.6503,-3.6538,-3.6569,-3.6633,-3.6712,-3.6668,-3.6695,-3.6674,-3.6731,-3.6868,-3.6676,-3.6676,-3.6712,-3.7019,-3.7056,-3.7083,-3.6841,-3.6845,-3.6848,-3.7017,0,-3.6397,-3.653,-3.6506,-3.6635,-3.6694,-3.6639,-3.6705,-3.6729,-3.6728,-3.6777,-3.6775,-3.6833,-3.6769,-3.6785,-3.6839,-3.684,-3.6929,-3.6827,-3.6901,-3.6904,-3.6898,-3.7111,-3.7151,-3.7309,-3.7038,-3.7042,-3.7044,0,-3.6608,-3.6647,-3.6783,-3.68,-3.6823,-3.6884,-3.6928,-3.6976,-3.7002,-3.6996,-3.7026,-3.6994,-3.707,-3.699,-3.7096,-3.7027,-3.7055,-3.706,-3.7066,-3.7073,-3.6984,-3.7126,-3.7359,-3.7384,-3.7078,-3.7075,-3.7073,0,-3.6763,-3.6849,-3.6942,-3.6959,-3.6981,-3.7025,-3.7036,-3.7057,-3.7089,-3.7127,-3.7148,-3.7194,-3.722,-3.7257,-3.7239,-3.7182,-3.7348,-3.7266,-3.7347,-3.7348,-3.7386,-3.7384,-3.7629,-3.7402,-3.7401,-3.7401,-3.7401,0,-3.6951,-3.7037,-3.7012,-3.7069,-3.7163,-3.7134,-3.7228,-3.7232,-3.7251,-3.7308,-3.7262,-3.7317,-3.7288,-3.7341,-3.7326,-3.7416,-3.7428,-3.7427,-3.7422,-3.7432,-3.7432,-3.7451,-3.7441,-3.7407,-3.7406,-3.7405,-3.7404,0,-3.7141,-3.7128,-3.7225,-3.7238,-3.7243,-3.7312,-3.7322,-3.7376,-3.737,-3.7443,-3.7458,-3.745,-3.7509,-3.7494,-3.7558,-3.7549,-3.7663,-3.7644,-3.7655,-3.7651,-3.7733,-3.7726,-3.8,-3.8035,-3.7784,-3.7786,-3.7788,0,-3.7263,-3.7327,-3.7347,-3.7382,-3.7396,-3.7453,-3.7485,-3.7458,-3.7494,-3.7527,-3.7577,-3.7632,-3.7675,-3.7772,-3.7772,-3.7821,-3.7804,-3.7896,-3.7811,-3.7819,-3.7807,-3.7804,-3.7811,-3.7914,-3.7917,-3.7919,-3.7921,0,-3.7481,-3.7471,-3.7519,-3.7565,-3.7605,-3.764,-3.767,-3.7702,-3.7677,-3.7719,-3.7779,-3.7813,-3.7878,-3.7934,-3.7979,-3.799,-3.7953,-3.7948,-3.7969,-3.7981,-3.7985,-3.7985,-3.7703,-3.7942,-3.794,-3.7938,-3.7937,-3.7936,-3.7641,-3.7696,-3.7719,-3.7774,-3.7794,-3.7824,-3.7875,-3.7875,-3.7925,-3.7976,-3.7957,-3.8026,-3.805,-3.8106,-3.8123,-3.8177,-3.8142,-3.8173,-3.8181,-3.819,-3.8201,-3.7975,-3.8185,-3.8184,-3.8184,-3.8183,-3.8183,0,-3.7858,-3.787,-3.792,-3.7965,-3.8008,-3.7968,-3.7999,-3.8039,-3.81,-3.8125,-3.8168,-3.8237,-3.8291,-3.8295,-3.8345,-3.8387,-3.8371,-3.8402,-3.8399,-3.8403,-3.8228,-3.8205,-3.8414,-3.8414,-3.8414,-3.8414,-3.8414,-3.8414,-3.7976,-3.8067,-3.806,-3.8161,-3.8171,-3.8239,-3.8261,-3.8288,-3.8308,-3.8387,-3.8431,-3.8433,-3.845,-3.8501,-3.8548,-3.8548,-3.8569,-3.8607,-3.86,-3.8438,-3.8415,-3.8393,-3.8371,-3.8611,-3.8612,-3.877,-3.8772,-3.8773]},{"header":{"parameterUnit":"m.s-1","parameterCategory":1,"la1":30.2991,"la2":30.254,"lo1":-89.0895,"lo2":-89.0444,"dy":0.0017,"dx":0.0017,"nx":28,"ny":28,"refTime":"2023-11-13T09:00:00:Z","depth":0,"parameterNumber":3,"parameterNumberName":"V-component_of_WINDS"},"data":[0,0,0,0,0,0,0,0,0,0,0,0,0,0,0,0,0,0,0,0,0,0,0,0,0,0,0,0,0,0,0,0,0,0,0,0,0,0,0,0,0,0,0,0,0,0,0,0,0,0,0,0,0,0,0,0,0,0,-4.7358,-4.7358,0,-4.7347,-4.7347,-4.7347,-4.7271,-4.7269,-4.7267,-4.7265,-4.7256,-4.7257,-4.7259,0,0,0,0,0,0,0,0,0,0,0,0,0,-4.7312,-4.7313,-4.7358,-4.7358,-4.7357,-4.7347,-4.7347,-4.7347,-4.7271,-4.7269,-4.7267,-4.7265,-4.7255,-4.7257,-4.7259,0,0,0,0,0,0,0,0,0,0,0,0,0,-4.732,-4.7313,-4.7358,-4.7318,-4.7315,-4.7347,-4.7347,-4.7347,-4.7272,-4.7269,-4.7266,-4.7264,-4.7255,-4.7257,-4.7259,-4.7329,0,0,-4.7266,-4.7267,0,0,0,0,0,0,0,0,-4.7319,-4.7321,-4.7324,-4.7321,-4.7317,-4.7307,-4.7327,-4.7341,-4.7272,-4.7288,-4.7265,-4.7262,-4.7275,-4.7276,-4.728,-4.7328,-4.7328,-4.7266,-4.7267,-4.7268,-4.7269,0,0,0,0,0,0,0,-4.7319,-4.7321,-4.7354,-4.7324,-4.732,-4.7301,-4.7299,-4.733,-4.7298,-4.7287,-4.7281,-4.7281,-4.7273,-4.7278,-4.7279,-4.7328,-4.7266,-4.7268,-4.7269,-4.727,-4.7432,-4.7435,0,0,0,0,0,0,-4.7324,-4.7322,-4.7354,-4.7353,-4.7311,-4.7304,-4.7302,-4.7313,-4.7297,-4.7292,-4.7283,-4.7277,-4.7276,-4.7277,-4.7279,-4.7358,-4.7268,-4.727,-4.7272,-4.7429,-4.7433,-4.7436,0,0,0,0,0,0,-4.7323,-4.7327,-4.7354,-4.7336,-4.7338,-4.7308,-4.7321,-4.7315,-4.732,-4.7294,-4.7288,-4.7294,-4.7273,-4.7275,-4.7317,-4.7357,-4.7271,-4.7273,-4.7425,-4.743,-4.7434,-4.7519,0,0,0,0,0,0,-4.7322,-4.7328,-4.7354,-4.7337,-4.7339,-4.7393,-4.7324,-4.7317,-4.7324,-4.7316,-4.7303,-4.7299,-4.7271,-4.7314,-4.7319,-4.7358,-4.7275,-4.7422,-4.7428,-4.7433,-4.7512,-4.7525,-4.7537,0,0,0,0,0,-4.7321,-4.7379,-4.7356,-4.736,-4.7371,-4.7395,-4.7396,-4.7364,-4.7327,-4.7353,-4.7337,-4.7299,-4.7352,-4.7319,-4.7324,-4.7364,-4.7419,-4.7426,-4.7432,-4.7507,-4.7523,-4.7536,0,0,0,0,0,0,-4.7402,-4.7376,-4.735,-4.7404,-4.7402,-4.7382,-4.7414,-4.7382,-4.7391,-4.7383,-4.7343,-4.734,-4.7388,-4.738,-4.7344,-4.743,-4.7379,-4.7387,-4.7433,-4.7449,-4.7461,-4.7461,-4.7277,0,0,0,0,0,-4.7426,-4.7447,-4.7423,-4.7473,-4.7474,-4.7444,-4.7454,-4.7428,-4.7425,-4.7424,-4.7411,-4.7409,-4.7425,-4.7437,-4.745,-4.7511,-4.7507,-4.7541,-4.7554,-4.7564,-4.7571,-4.7602,-4.7617,-4.7458,-4.7458,-4.7457,0,0,-4.7476,-4.7464,-4.748,-4.7489,-4.7485,-4.7508,-4.7444,-4.7472,-4.7488,-4.7428,-4.7466,-4.7456,-4.7452,-4.7503,-4.7525,-4.7498,-4.7614,-4.7573,-4.7581,-4.7582,-4.761,-4.7625,-4.7639,-4.7462,-4.7461,-4.7461,0,0,-4.7578,-4.7572,-4.7612,-4.7609,-4.7603,-4.7583,-4.7593,-4.7578,-4.7569,-4.7606,-4.7561,-4.758,-4.7609,-4.7607,-4.761,-4.7712,-4.7677,-4.7717,-4.7781,-4.7812,-4.7824,-4.7835,-4.787,-4.7883,-4.7725,-4.7725,-4.7725,0,-4.7641,-4.7674,-4.7637,-4.7667,-4.7672,-4.7618,-4.7659,-4.7657,-4.7657,-4.7661,-4.7632,-4.7666,-4.7659,-4.7708,-4.7733,-4.7738,-4.7747,-4.7718,-4.7825,-4.7836,-4.7845,-4.7878,-4.7892,-4.773,-4.7729,-4.7729,-4.7728,0,-4.7751,-4.7774,-4.7807,-4.7807,-4.7815,-4.7851,-4.7819,-4.7833,-4.7807,-4.779,-4.7828,-4.7818,-4.7828,-4.7838,-4.7814,-4.7884,-4.7867,-4.7832,-4.7779,-4.7866,-4.7896,-4.7909,-4.7737,-4.7735,-4.7733,-4.7732,0,0,-4.7904,-4.7882,-4.7895,-4.7893,-4.7883,-4.79,-4.7932,-4.7941,-4.7953,-4.7955,-4.798,-4.8006,-4.7972,-4.7976,-4.7951,-4.7978,-4.8057,-4.7939,-4.7938,-4.796,-4.8133,-4.8159,-4.8174,-4.8034,-4.8036,-4.8038,-4.8133,0,-4.8001,-4.8055,-4.8023,-4.8081,-4.8101,-4.8051,-4.8079,-4.8075,-4.806,-4.8075,-4.8059,-4.8077,-4.8033,-4.8034,-4.8059,-4.8042,-4.8091,-4.8035,-4.8057,-4.8058,-4.8059,-4.819,-4.8217,-4.8307,-4.8145,-4.8147,-4.8148,0,-4.8122,-4.8128,-4.8188,-4.8172,-4.8179,-4.8205,-4.821,-4.8225,-4.822,-4.8207,-4.8211,-4.8179,-4.8209,-4.8158,-4.8199,-4.8162,-4.8169,-4.8162,-4.8165,-4.8165,-4.8108,-4.8193,-4.8335,-4.8348,-4.8167,-4.8165,-4.8164,0,-4.8226,-4.8249,-4.8287,-4.8288,-4.8271,-4.829,-4.8283,-4.8275,-4.8283,-4.8288,-4.8292,-4.8301,-4.8305,-4.8313,-4.8284,-4.8249,-4.8329,-4.8275,-4.8319,-4.8319,-4.8337,-4.8336,-4.8482,-4.8344,-4.8344,-4.8343,-4.8343,0,-4.8338,-4.8377,-4.8333,-4.8357,-4.8398,-4.8361,-4.8403,-4.8392,-4.8385,-4.8405,-4.8363,-4.8383,-4.8344,-4.836,-4.8338,-4.8375,-4.8378,-4.8368,-4.8361,-4.8371,-4.8372,-4.8375,-4.8367,-4.8347,-4.8346,-4.8345,-4.8345,0,-4.8461,-4.8434,-4.8472,-4.8452,-4.8448,-4.848,-4.8463,-4.8484,-4.8466,-4.8492,-4.8496,-4.8468,-4.8485,-4.8457,-4.8471,-4.8456,-4.8507,-4.8491,-4.8508,-4.8503,-4.8548,-4.8544,-4.8699,-4.8718,-4.8569,-4.8571,-4.8572,0,-4.8534,-4.8562,-4.8545,-4.8555,-4.8551,-4.8568,-4.8575,-4.854,-4.8548,-4.8544,-4.8566,-4.8579,-4.8587,-4.8616,-4.8597,-4.8608,-4.8591,-4.8645,-4.8593,-4.8601,-4.8591,-4.8589,-4.8591,-4.8656,-4.8658,-4.8659,-4.866,0,-4.8665,-4.865,-4.8661,-4.8668,-4.8677,-4.868,-4.8681,-4.8692,-4.8654,-4.8667,-4.8683,-4.8689,-4.8703,-4.8716,-4.8721,-4.8715,-4.8682,-4.8677,-4.8687,-4.8697,-4.8706,-4.8701,-4.8537,-4.8673,-4.8672,-4.8671,-4.867,-4.867,-4.8764,-4.8786,-4.8777,-4.8791,-4.8787,-4.8789,-4.8807,-4.8791,-4.8803,-4.8811,-4.879,-4.8811,-4.8804,-4.8808,-4.8805,-4.8821,-4.8797,-4.8813,-4.8817,-4.8821,-4.8827,-4.8704,-4.8822,-4.8822,-4.8822,-4.8821,-4.8821,0,-4.8892,-4.8884,-4.8897,-4.8898,-4.8909,-4.8876,-4.8874,-4.8885,-4.8904,-4.8901,-4.891,-4.8928,-4.8941,-4.8923,-4.8932,-4.8949,-4.8933,-4.8952,-4.895,-4.8949,-4.8849,-4.8838,-4.8964,-4.8964,-4.8964,-4.8964,-4.8964,-4.8964,-4.896,-4.8995,-4.8979,-4.9012,-4.9003,-4.9023,-4.9025,-4.9026,-4.9022,-4.9044,-4.9054,-4.9042,-4.9033,-4.9041,-4.9051,-4.9046,-4.9051,-4.9075,-4.9064,-4.897,-4.8956,-4.8943,-4.8933,-4.9077,-4.9077,-4.9163,-4.9164,-4.9164]}]]